Weather History for KPRC - March, 2013

Change the Weather History Date:

Tuesday, March 26, 2013

  Actual Average Record
Temperature  
Mean Temperature 54 °F 48 °F  
Max Temperature 68 °F 62 °F 81 °F (1988)
Min Temperature 39 °F 34 °F 19 °F (1976)
Degree Days  
Heating Degree Days 12    
Month to date heating degree days  
Since 1 July heating degree days  
Cooling Degree Days 0    
Month to date cooling degree days  
Year to date cooling degree days  
Growing Degree Days 4 (Base 50)    
Moisture  
Dew Point 16 °F    
Average Humidity 25    
Maximum Humidity 42    
Minimum Humidity 13    
Precipitation  
Precipitation 0.00 in 0.03 in 0.99 in (1991)
Month to date precipitation 0.94  
Year to date precipitation 3.45  
Sea Level Pressure  
Sea Level Pressure 29.88 in    
Wind  
Wind Speed 7 mph (SSW)    
Max Wind Speed 18 mph    
Max Gust Speed 30 mph    
Visibility 10 miles    
Events      
T = Trace of Precipitation, MM = Missing Value Source: NWS Daily Summary

Daily Weather History Graph

Daily Weather History Graph

Search for Another Location

Airport or City:

Trip Planner

Search our weather history database for the weather conditions in past years. The results will help you decide how hot, cold, wet, or windy it might be!

Date:

Astronomy

Mar. 26, 2013 Rise Set
Actual Time 6:24 AM MST 6:46 PM MST
Civil Twilight 5:59 AM MST 7:11 PM MST
Nautical Twilight 5:29 AM MST 7:41 PM MST
Astronomical Twilight 4:59 AM MST 8:11 PM MST
Moon 6:26 PM MST (3/26) 5:42 AM MST (3/26)
Length of Visible Light 13h 12m
Length of Day
12h 21m
Full, 100% of the Moon is Illuminated
Mar 26
Full
Mar 27
Full
Apr 2
Last Quarter
Apr 10
New
Apr 18
First Quarter

Hourly Weather History & Observations

Time (MST) Temp. Windchill Dew Point Humidity Pressure Visibility Wind Dir Wind Speed Gust Speed Precip Events Conditions
12:53 AM 46.0 °F 43.9 °F 17.1 °F 31% 29.92 in 10.0 mi South 4.6 mph - N/A   Clear
1:53 AM 43.0 °F 39.5 °F 17.1 °F 35% 29.92 in 10.0 mi South 5.8 mph - N/A   Clear
2:53 AM 42.1 °F 37.7 °F 17.1 °F 37% 29.90 in 10.0 mi South 6.9 mph - N/A   Clear
3:53 AM 42.1 °F 37.7 °F 16.0 °F 35% 29.88 in 10.0 mi South 6.9 mph - N/A   Clear
4:53 AM 39.9 °F 35.1 °F 18.0 °F 41% 29.88 in 10.0 mi SSW 6.9 mph - N/A   Clear
5:53 AM 41.0 °F 36.4 °F 17.1 °F 38% 29.90 in 10.0 mi SSW 6.9 mph - N/A   Clear
6:53 AM 44.1 °F 41.5 °F 16.0 °F 32% 29.91 in 10.0 mi South 4.6 mph - N/A   Clear
7:53 AM 50.0 °F - 19.9 °F 31% 29.92 in 10.0 mi SSW 4.6 mph - N/A   Clear
8:53 AM 57.0 °F - 16.0 °F 20% 29.91 in 10.0 mi East 4.6 mph - N/A   Mostly Cloudy
9:53 AM 60.1 °F - 14.0 °F 16% 29.91 in 10.0 mi SSW 5.8 mph - N/A   Clear
10:53 AM 63.0 °F - 12.9 °F 14% 29.89 in 10.0 mi SSW 13.8 mph - N/A   Clear
11:53 AM 64.0 °F - 15.1 °F 15% 29.90 in 10.0 mi SSW 11.5 mph 19.6 mph N/A   Clear
12:53 PM 64.9 °F - 16.0 °F 15% 29.88 in 10.0 mi South 10.4 mph - N/A   Clear
1:53 PM 66.9 °F - 16.0 °F 14% 29.86 in 10.0 mi SSW 11.5 mph 20.7 mph N/A   Clear
2:53 PM 66.9 °F - 16.0 °F 14% 29.84 in 10.0 mi SSW 11.5 mph 20.7 mph N/A   Clear
3:53 PM 68.0 °F - 16.0 °F 14% 29.83 in 10.0 mi WSW 18.4 mph 29.9 mph N/A   Clear
4:53 PM 66.9 °F - 16.0 °F 14% 29.82 in 10.0 mi SSW 18.4 mph 27.6 mph N/A   Clear
5:53 PM 64.9 °F - 12.9 °F 13% 29.83 in 10.0 mi SW 13.8 mph 24.2 mph N/A   Clear
6:53 PM 61.0 °F - 12.9 °F 15% 29.83 in 10.0 mi SSW 8.1 mph - N/A   Clear
7:53 PM 55.9 °F - 15.1 °F 20% 29.84 in 10.0 mi South 3.5 mph - N/A   Clear
8:53 PM 50.0 °F - 17.1 °F 27% 29.85 in 10.0 mi South 4.6 mph - N/A   Clear
9:53 PM 45.0 °F 41.8 °F 23.0 °F 42% 29.87 in 10.0 mi SSW 5.8 mph - N/A   Clear
10:53 PM 46.9 °F - 19.0 °F 33% 29.86 in 10.0 mi South 6.9 mph - N/A   Clear
11:53 PM 44.1 °F 40.1 °F 19.0 °F 37% 29.86 in 10.0 mi South 6.9 mph - N/A   Clear